シューメーカー-レヴィ第6彗星

181P/Shoemaker-Levy 6 (1999)

English version
Home page
Updated on October 30, 2006

---------------------------------------------------------------------

・ プロフィール

・ 軌道要素

Epoch 1999 May  22.0 TT = JDT 2451320.5
T 1999 May  6.38801 TT                                  Sato
q   1.1345160            (2000.0)            P               Q
n   0.13032701     Peri.  333.36818     +0.96908138     -0.17060931
a   3.8528293      Node    37.83406     +0.24407697     +0.76871398
e   0.7055369      Incl.   16.89433     -0.03616226     +0.61641811
P   7.56
From 41 observations 1991 Nov. 3-2006 Oct. 27, mean residual 1".09.

・ 星図

・ 光度変化

        m1 = 13.5 + 5 logΔ + 15.0 log r

---------------------------------------------------------------------

軌道要素は佐藤裕久氏の計算によるものです。
星図は StellaNavigator Ver.2.0 for Windows (アストロアーツ 編著 / アスキー出版局刊) で作成したものです。
光度グラフはComet for Windowsで作成したものです。

---------------------------------------------------------------------

Copyright(C) Seiichi Yoshida (comet@aerith.net). All rights reserved.